Watch and pray, that ye enter not into temptation: the spirit indeed is willing, but the flesh is weak.
Matthew 26:41 KJ
pause

Enter Zip Code:

Current conditions for: Simi Valley, CA, US - Location: 34.26  -118.75 on Tue, 20 Mar 2007 9:51 pm PDT:
cloud or sun
cloud or sun
cloud or sun

Currently:
Cloudy
Visibility: 1,609.0 miles
Temp: 53° F     Humidity: 86%
Wind: Calm
Feels like: 53 ° F
Pressure: 30.01 in and rising
Sunrise: 6:59 am  Sunset: 7:06 pm
Forecast for Tue:
Showers Early
64° F / 47° F
Forecast for Wed:
Partly Cloudy
67° F / 47° F



Data courtesy of Yahoo! Weather

Enter 4 Letter Airport ID:

Current Observation for KDFW :

2019/12/16 09:53
KDFW 160953Z 34015KT 10SM BKN008 OVC011 05/02 A2989 RMK AO2 SLP117 T00500022 $

Forecast for KDFW :

2019/12/16 09:58
TAF 
      AMD KDFW 160857Z 1609/1712 36013KT P6SM OVC011 
      TEMPO 1609/1613 5SM -DZ OVC009 
     FM161600 33014G24KT P6SM OVC020 
     FM162000 33019G29KT P6SM SCT050 
     FM170100 34016KT P6SM BKN250
GOES Pacific Coast Color Satellite View
GOES Pacific Coast Color Satellite View
GOES Hurricane Color Satellite View
GOES Hurricane Color Satellite View
  Movies and Other Links
(May take a while to load)
East Coast Movie
West Coast Movie
GOES East Full Disk
GOES West Full Disk
S Plains Radar View
Southern Plains Radar View
N Texas Radar View
Dallas Ft Worth Area View
Southern Rockies Radar View
North Texas - Oklahoma Radar View
CONUS Visible
CONUS Visible
CONUS IR
CONUS IR
CONUS Water Vapor
CONUS Water Vapor